Other Surface Observations
Issued by NWS Charleston, SC

Home | Current Version | Previous Version | Text Only | Print | Product List | Glossary On
Versions: 1 2 3 4 5 6 7 8 9 10 11 12 13 14 15 16 17 18 19 20 21 22 23 24 25 26 27 28 29 30 31 32 33 34 35 36 37 38 39 40 41 42 43 44 45 46 47 48 49 50
322
SXUS52 KCHS 281528
OSOCHS

MARINE OBSERVATIONS
NATIONAL WEATHER SERVICE CHARLESTON SC
1100 AM EDT WED SEP 28 2016

...DOWNTOWN CHARLESTON AND HARBOR...

CITY           SKY/WX    TMP DP  RH WIND       PRES   REMARKS
WATERFRONT PRK   N/A     82  74  77 SW5       29.95R

...LAKE MOULTRIE...

CITY           SKY/WX    TMP DP  RH WIND       PRES   REMARKS
PINOPOLIS        N/A     81  73  78 VRB3      29.90R

...LAKE AND SUPPLEMENTAL COASTAL OBSERVATIONS...

STATION/POSITION TIME  TEMP    WIND        PRES    WAVE   SWELL
                       AIR SEA DIR/SP/G            HT/PER HT/PER/DIR
                 (UTC) (F)     (DEG/KT/KT) (MB)    (FT/S) (FT/S/D)
FORT PULASKI     1500   83 81  200/  4/  6 1015.4
SAPELO ISLAND    1500   84        CALM     1015.0
WINYAH BAY       1430   81     210/  5     1014.0S
LAKE MURRAY      1520   78     140/  2/  3 1013.5S
ACE BASIN NERRS  1445   83     240/  2     1015.0S


...C-MAN AND BUOY OBSERVATIONS...

STATION/POSITION TIME  TEMP    WIND        PRES    WAVE   SWELL
                       AIR SEA DIR/SP/G            HT/PER HT/PER/DIR
                 (UTC) (F)     (DEG/KT/KT) (MB)    (FT/S) (FT/S/D)
BUOY 41004       1450   81 82  230/  6/  6 1014.8R   3/ 7   3/100/ 7
BUOY 41008       1450   81 82  220/  6/  8 1015.1R   2/13   2/100/13
FOLLY BEACH CMAN 1500   81     220/ 10/ 11 1015.2R
CAPERS NS BUOY   1408   80 81  230/ 10/ 12 1014.8R
FRIPP NS BUOY    1508   86 81  230/  8/ 10 1015.2R
5E ST. MARYS GA  1501      82                N/A     2/13   2/ 90/13


STATION/POSITION TIME  TEMP    WIND        PRES    WAVE   SWELL
                       AIR SEA DIR/SP/G            HT/PER HT/PER/DIR
                 (UTC) (F)     (DEG/KT/KT) (MB)    (FT/S) (FT/S/D)
FRYING PAN BUOY  1510   81 82   CALM  /  2 1015.4
BUOY 41025       1450   77 83   20/ 10/ 12 1015.3R   4/ 8   3/ 70/ 8
CAPE LOOKOUT NC  1500   78      80/  6/  6 1015.2R
BUOY 41002       1450   82 83  200/  8/ 10 1015.5S   4/11   3/ 40/11
BUOY 41010       NOT AVBL
ST AUGUSTINE FL  1500   85 84  220/  6/  8 1016.9R

$$




USA.gov is the U.S. government's official web portal to all federal, state and local government web resources and services.